When you browse on this site, cookies collect data to enhance your experience and personalize the content and advertising you see.
Visit our Privacy Policy to learn more. By continuing to use the site, you agree to this use of cookies and data.
  • In Hungary
  • List of Countries
  • For 7 days
  • Water Temperature
  • Weather Map
  • News
  • Weather Widgets
  • user-avatar
    Login

    Hourly Weather Kamen'-Rybolov

    Today, 12 November, Tuesday

    Time Temperature Precipitation Wind Pressure Humidity
    00:00 0°C° 0 mm 5 mps 751 mmHg 67%
    01:00 0°C° 0 mm 4 mps 751 mmHg 65%
    02:00 -1°C° 0 mm 4 mps 752 mmHg 63%
    03:00 -1°C° 0 mm 3 mps 752 mmHg 62%
    04:00 -1°C° 0 mm 3 mps 753 mmHg 60%
    05:00 -2°C° 0 mm 4 mps 753 mmHg 59%
    06:00 -3°C° 0 mm 4 mps 754 mmHg 57%
    07:00 -2°C° 0 mm 4 mps 754 mmHg 49%
    08:00 -2°C° 0 mm 4 mps 755 mmHg 41%
    09:00 0°C° 0 mm 4 mps 755 mmHg 32%
    10:00 +2°C° 0 mm 3 mps 755 mmHg 28%
    11:00 +2°C° 0 mm 3 mps 755 mmHg 25%
    12:00 +4°C° 0 mm 2 mps 755 mmHg 22%
    13:00 +4°C° 0 mm 2 mps 755 mmHg 24%
    14:00 +4°C° 0 mm 2 mps 755 mmHg 26%
    15:00 +4°C° 0 mm 2 mps 755 mmHg 28%
    16:00 +3°C° 0 mm 2 mps 755 mmHg 33%
    17:00 +2°C° 0 mm 2 mps 755 mmHg 38%
    18:00 +1°C° 0 mm 2 mps 756 mmHg 43%
    19:00 +1°C° 0 mm 2 mps 756 mmHg 44%
    20:00 +1°C° 0 mm 2 mps 756 mmHg 45%
    21:00 +2°C° 0 mm 1 mps 756 mmHg 46%
    22:00 +2°C° 0.2 mm 1 mps 755 mmHg 54%
    23:00 +2°C° 0.2 mm 1 mps 755 mmHg 62%

    Tomorrow, 13 November, Wednesday

    Time Temperature Precipitation Wind Pressure Humidity
    00:00 +1°C° 0.2 mm 1 mps 755 mmHg 69%
    01:00 -1°C° 0 mm 2 mps 754 mmHg 68%
    02:00 -1°C° 0 mm 2 mps 754 mmHg 67%
    03:00 -2°C° 0 mm 2 mps 753 mmHg 66%
    04:00 -1°C° 0 mm 2 mps 752 mmHg 67%
    05:00 0°C° 0 mm 3 mps 752 mmHg 68%
    06:00 0°C° 0 mm 3 mps 751 mmHg 69%
    07:00 +1°C° 0.3 mm 3 mps 751 mmHg 74%
    08:00 +2°C° 0.3 mm 2 mps 750 mmHg 80%
    09:00 +3°C° 0.3 mm 2 mps 750 mmHg 85%
    10:00 +3°C° 0.9 mm 2 mps 749 mmHg 87%
    11:00 +3°C° 0.9 mm 2 mps 748 mmHg 90%
    12:00 +5°C° 0.9 mm 1 mps 747 mmHg 93%
    13:00 +3°C° 1.8 mm 2 mps 746 mmHg 94%
    14:00 +2°C° 1.8 mm 3 mps 744 mmHg 96%
    15:00 +2°C° 1.8 mm 3 mps 743 mmHg 97%
    16:00 -1°C° 2.2 mm 5 mps 743 mmHg 96%
    17:00 -3°C° 2.2 mm 7 mps 743 mmHg 95%
    18:00 -6°C° 2.2 mm 9 mps 742 mmHg 93%
    19:00 -8°C° 0.7 mm 9 mps 743 mmHg 90%
    20:00 -9°C° 0.7 mm 9 mps 744 mmHg 86%
    21:00 -10°C° 0.7 mm 8 mps 744 mmHg 83%
    22:00 -11°C° 0 mm 8 mps 745 mmHg 80%
    23:00 -11°C° 0 mm 8 mps 746 mmHg 78%

    Day after tomorrow, 14 November, Thursday

    Time Temperature Precipitation Wind Pressure Humidity
    00:00 -12°C° 0 mm 8 mps 746 mmHg 76%
    01:00 -13°C° 0 mm 8 mps 746 mmHg 75%
    02:00 -13°C° 0 mm 7 mps 747 mmHg 74%
    03:00 -14°C° 0 mm 7 mps 747 mmHg 74%
    04:00 -15°C° 0 mm 8 mps 747 mmHg 70%
    05:00 -15°C° 0 mm 8 mps 747 mmHg 66%
    06:00 -16°C° 0 mm 8 mps 748 mmHg 63%
    07:00 -15°C° 0 mm 8 mps 748 mmHg 59%
    08:00 -15°C° 0 mm 8 mps 749 mmHg 55%
    09:00 -15°C° 0 mm 8 mps 749 mmHg 51%
    10:00 -13°C° 0 mm 8 mps 749 mmHg 51%
    11:00 -13°C° 0 mm 8 mps 749 mmHg 52%
    12:00 -12°C° 0 mm 8 mps 749 mmHg 52%
    13:00 -12°C° 0 mm 8 mps 749 mmHg 53%
    14:00 -12°C° 0 mm 8 mps 749 mmHg 54%
    15:00 -12°C° 0 mm 9 mps 749 mmHg 54%
    16:00 -13°C° 0 mm 8 mps 750 mmHg 56%
    17:00 -13°C° 0 mm 7 mps 750 mmHg 58%
    18:00 -14°C° 0 mm 7 mps 751 mmHg 60%
    19:00 -14°C° 0 mm 6 mps 751 mmHg 60%
    20:00 -14°C° 0 mm 6 mps 751 mmHg 60%
    21:00 -14°C° 0 mm 5 mps 752 mmHg 61%
    22:00 -14°C° 0 mm 5 mps 751 mmHg 61%
    23:00 -14°C° 0 mm 4 mps 751 mmHg 61%

    15 November, Friday

    Time Temperature Precipitation Wind Pressure Humidity
    00:00 -14°C° 0 mm 4 mps 751 mmHg 62%
    01:00 -14°C° 0 mm 4 mps 751 mmHg 63%
    02:00 -13°C° 0 mm 3 mps 750 mmHg 63%
    03:00 -13°C° 0 mm 3 mps 750 mmHg 64%
    04:00 -14°C° 0 mm 4 mps 750 mmHg 65%
    05:00 -12°C° 0 mm 4 mps 749 mmHg 67%
    06:00 -12°C° 0 mm 4 mps 749 mmHg 68%
    07:00 -13°C° 0 mm 5 mps 749 mmHg 62%
    08:00 -12°C° 0 mm 6 mps 749 mmHg 56%
    09:00 -12°C° 0 mm 7 mps 749 mmHg 50%
    10:00 -12°C° 0 mm 8 mps 749 mmHg 48%
    11:00 -11°C° 0 mm 9 mps 749 mmHg 47%
    12:00 -12°C° 0 mm 10 mps 749 mmHg 45%
    13:00 -10°C° 0 mm 10 mps 749 mmHg 45%
    14:00 -10°C° 0 mm 9 mps 749 mmHg 45%
    15:00 -10°C° 0 mm 9 mps 748 mmHg 46%
    16:00 -11°C° 0 mm 9 mps 749 mmHg 48%
    17:00 -11°C° 0 mm 8 mps 749 mmHg 50%
    18:00 -12°C° 0 mm 7 mps 749 mmHg 53%
    19:00 -12°C° 0 mm 7 mps 750 mmHg 53%
    20:00 -13°C° 0 mm 7 mps 750 mmHg 54%
    21:00 -13°C° 0 mm 7 mps 751 mmHg 54%
    22:00 -12°C° 0 mm 6 mps 751 mmHg 56%
    23:00 -12°C° 0 mm 6 mps 750 mmHg 57%

    16 November, Saturday

    Time Temperature Precipitation Wind Pressure Humidity
    00:00 -12°C° 0 mm 6 mps 750 mmHg 58%
    01:00 -12°C° 0 mm 6 mps 751 mmHg 59%
    02:00 -12°C° 0 mm 6 mps 751 mmHg 60%
    03:00 -12°C° 0 mm 5 mps 751 mmHg 61%
    04:00 -12°C° 0 mm 5 mps 751 mmHg 59%
    05:00 -13°C° 0 mm 5 mps 751 mmHg 57%
    06:00 -13°C° 0 mm 5 mps 751 mmHg 55%
    07:00 -12°C° 0 mm 5 mps 752 mmHg 51%
    08:00 -12°C° 0 mm 5 mps 752 mmHg 47%
    09:00 -11°C° 0 mm 6 mps 753 mmHg 43%
    10:00 -10°C° 0 mm 6 mps 753 mmHg 41%
    11:00 -11°C° 0 mm 7 mps 753 mmHg 40%
    12:00 -9°C° 0 mm 7 mps 753 mmHg 38%
    13:00 -8°C° 0 mm 7 mps 753 mmHg 39%
    14:00 -8°C° 0 mm 7 mps 753 mmHg 39%
    15:00 -8°C° 0 mm 7 mps 753 mmHg 40%
    16:00 -9°C° 0 mm 6 mps 754 mmHg 44%
    17:00 -10°C° 0 mm 6 mps 754 mmHg 49%
    18:00 -11°C° 0 mm 5 mps 755 mmHg 53%
    19:00 -11°C° 0 mm 5 mps 756 mmHg 54%
    20:00 -12°C° 0 mm 5 mps 756 mmHg 55%
    21:00 -12°C° 0 mm 5 mps 757 mmHg 56%
    22:00 -11°C° 0 mm 4 mps 758 mmHg 56%
    23:00 -11°C° 0 mm 4 mps 758 mmHg 56%

    17 November, Sunday

    Time Temperature Precipitation Wind Pressure Humidity
    00:00 -12°C° 0 mm 3 mps 759 mmHg 56%
    01:00 -12°C° 0 mm 3 mps 759 mmHg 57%
    02:00 -10°C° 0 mm 2 mps 759 mmHg 57%
    03:00 -10°C° 0 mm 2 mps 760 mmHg 57%
    04:00 -10°C° 0 mm 2 mps 760 mmHg 58%
    05:00 -9°C° 0 mm 1 mps 760 mmHg 58%
    06:00 -9°C° 0 mm 1 mps 760 mmHg 59%
    07:00 -9°C° 0 mm 1 mps 760 mmHg 57%
    08:00 -8°C° 0 mm 1 mps 760 mmHg 55%
    09:00 -7°C° 0 mm 1 mps 760 mmHg 53%
    10:00 -7°C° 0 mm 2 mps 759 mmHg 50%
    11:00 -7°C° 0 mm 2 mps 759 mmHg 47%
    12:00 -6°C° 0 mm 2 mps 758 mmHg 44%
    13:00 -5°C° 0 mm 2 mps 758 mmHg 47%
    14:00 -5°C° 0 mm 2 mps 757 mmHg 49%
    15:00 -5°C° 0 mm 2 mps 756 mmHg 52%
    16:00 -5°C° 0 mm 2 mps 755 mmHg 55%
    17:00 -6°C° 0 mm 2 mps 755 mmHg 58%
    18:00 -6°C° 0 mm 2 mps 754 mmHg 61%
    19:00 -6°C° 0.2 mm 2 mps 754 mmHg 66%
    20:00 -6°C° 0.2 mm 2 mps 753 mmHg 70%
    21:00 -4°C° 0.2 mm 1 mps 752 mmHg 74%
    22:00 -4°C° 1.2 mm 1 mps 751 mmHg 81%
    23:00 -4°C° 1.2 mm 1 mps 750 mmHg 88%
    Show more